RPB7258 SKBO-SKRG

Flight info

Callsign RPB7258
Flight time 0h 29m
Altitude 24000
Route VASIL2T VASIL DCT NIRSO NIRSO3C
Aircraft B738/M-SDE2E3FGHIRWXY/LB1

Departure

Time 2026-04-21 21:44
Airport El Dorado International Airport (SKBO)

Arrival

Time 2026-04-21 22:13
Airport Jose Maria Córdova International Airport (SKRG)
Time Latitude Longitude Altitude Speed Heading
2026-04-21 21:22 4.69769 -74.13844 8369 ft 0 kts 216°
2026-04-21 21:32 4.69770 -74.13843 8369 ft 2 kts 216°
2026-04-21 21:33 4.69784 -74.13833 8369 ft 2 kts 215°
2026-04-21 21:33 4.69797 -74.13824 8369 ft 2 kts 213°
2026-04-21 21:33 4.69811 -74.13815 8369 ft 2 kts 210°
2026-04-21 21:33 4.69826 -74.13807 8369 ft 2 kts 203°
2026-04-21 21:34 4.69841 -74.13802 8369 ft 2 kts 174°
2026-04-21 21:34 4.69854 -74.13808 8369 ft 1 kts 128°
2026-04-21 21:34 4.69856 -74.13811 8369 ft 0 kts 127°
2026-04-21 21:36 4.69854 -74.13808 8369 ft 1 kts 128°
2026-04-21 21:37 4.69846 -74.13797 8369 ft 3 kts 123°
2026-04-21 21:37 4.69840 -74.13770 8369 ft 4 kts 87°
2026-04-21 21:37 4.69858 -74.13743 8369 ft 5 kts 46°
2026-04-21 21:37 4.69875 -74.13712 8369 ft 6 kts 76°
2026-04-21 21:38 4.69884 -74.13671 8369 ft 6 kts 80°
2026-04-21 21:38 4.69886 -74.13625 8369 ft 7 kts 101°
2026-04-21 21:38 4.69861 -74.13583 8369 ft 7 kts 126°
2026-04-21 21:38 4.69829 -74.13539 8369 ft 8 kts 127°
2026-04-21 21:39 4.69793 -74.13491 8369 ft 9 kts 127°
2026-04-21 21:39 4.69753 -74.13439 8369 ft 10 kts 127°
2026-04-21 21:39 4.69710 -74.13381 8369 ft 11 kts 126°
2026-04-21 21:39 4.69663 -74.13319 8369 ft 12 kts 127°
2026-04-21 21:40 4.69611 -74.13253 8368 ft 12 kts 128°
2026-04-21 21:40 4.69559 -74.13185 8369 ft 13 kts 127°
2026-04-21 21:40 4.69503 -74.13110 8368 ft 14 kts 127°
2026-04-21 21:40 4.69446 -74.13033 8368 ft 14 kts 126°
2026-04-21 21:41 4.69389 -74.12957 8368 ft 13 kts 128°
2026-04-21 21:41 4.69335 -74.12887 8368 ft 13 kts 128°
2026-04-21 21:41 4.69282 -74.12817 8368 ft 12 kts 127°
2026-04-21 21:41 4.69231 -74.12748 8368 ft 12 kts 127°
2026-04-21 21:42 4.69203 -74.12675 8368 ft 12 kts 81°
2026-04-21 21:42 4.69224 -74.12591 8368 ft 13 kts 76°
2026-04-21 21:42 4.69260 -74.12514 8368 ft 12 kts 36°
2026-04-21 21:42 4.69313 -74.12526 8368 ft 7 kts 303°
2026-04-21 21:43 4.69340 -74.12568 8368 ft 7 kts 305°
2026-04-21 21:43 4.69380 -74.12621 8367 ft 22 kts 307°
2026-04-21 21:43 4.69613 -74.12930 8365 ft 88 kts 307°
2026-04-21 21:43 4.70107 -74.13582 8368 ft 144 kts 307°
2026-04-21 21:44 4.70803 -74.14511 8477 ft 182 kts 306°
2026-04-21 21:44 4.71597 -74.15555 9148 ft 190 kts 308°
2026-04-21 21:44 4.72394 -74.16596 10000 ft 190 kts 307°
2026-04-21 21:44 4.73215 -74.17680 10439 ft 205 kts 307°
2026-04-21 21:45 4.74125 -74.18882 10589 ft 227 kts 307°
2026-04-21 21:45 4.75097 -74.20222 10752 ft 249 kts 299°
2026-04-21 21:45 4.75567 -74.21924 10948 ft 271 kts 271°
2026-04-21 21:45 4.75302 -74.23918 11136 ft 298 kts 257°
2026-04-21 21:46 4.74840 -74.26009 11310 ft 323 kts 258°
2026-04-21 21:46 4.74365 -74.28275 11720 ft 337 kts 259°
2026-04-21 21:46 4.73893 -74.30583 11963 ft 339 kts 259°
2026-04-21 21:46 4.73424 -74.32909 11982 ft 342 kts 259°
2026-04-21 21:47 4.72951 -74.35270 12536 ft 347 kts 259°
2026-04-21 21:47 4.72476 -74.37639 13327 ft 347 kts 259°
2026-04-21 21:47 4.71998 -74.40023 13747 ft 348 kts 258°
2026-04-21 21:47 4.71518 -74.42416 13931 ft 351 kts 258°
2026-04-21 21:48 4.71016 -74.44815 13931 ft 354 kts 256°
2026-04-21 21:48 4.70396 -74.47196 14402 ft 358 kts 255°
2026-04-21 21:48 4.69728 -74.49594 15169 ft 355 kts 254°
2026-04-21 21:48 4.69064 -74.51974 15584 ft 352 kts 254°
2026-04-21 21:49 4.68412 -74.54344 15835 ft 352 kts 255°
2026-04-21 21:49 4.67766 -74.56721 15831 ft 354 kts 255°
2026-04-21 21:49 4.67123 -74.59108 15836 ft 353 kts 255°
2026-04-21 21:49 4.66482 -74.61492 15832 ft 353 kts 255°
2026-04-21 21:50 4.65972 -74.63895 15805 ft 354 kts 266°
2026-04-21 21:50 4.66043 -74.66354 15820 ft 353 kts 273°
2026-04-21 21:50 4.66185 -74.68784 15809 ft 353 kts 272°
2026-04-21 21:50 4.66302 -74.71244 15793 ft 353 kts 272°
2026-04-21 21:51 4.66400 -74.73708 15781 ft 354 kts 272°
2026-04-21 21:51 4.66490 -74.76172 15781 ft 353 kts 271°
2026-04-21 21:51 4.66575 -74.78634 15779 ft 353 kts 271°
2026-04-21 21:51 4.66660 -74.81102 15783 ft 353 kts 271°
2026-04-21 21:52 4.66842 -74.83554 15769 ft 353 kts 282°
2026-04-21 21:52 4.67824 -74.85793 15802 ft 353 kts 305°
2026-04-21 21:52 4.69540 -74.87552 15797 ft 354 kts 324°
2026-04-21 21:52 4.71584 -74.88931 15803 ft 354 kts 326°
2026-04-21 21:53 4.73642 -74.90301 15802 ft 355 kts 326°
2026-04-21 21:53 4.75669 -74.91655 15804 ft 355 kts 326°
2026-04-21 21:53 4.77727 -74.93037 15801 ft 356 kts 326°
2026-04-21 21:53 4.79777 -74.94421 15802 ft 356 kts 326°
2026-04-21 21:54 4.81830 -74.95811 15810 ft 356 kts 325°
2026-04-21 21:54 4.83882 -74.97204 15813 ft 356 kts 325°
2026-04-21 21:54 4.85931 -74.98597 15813 ft 356 kts 325°
2026-04-21 21:54 4.87981 -74.99991 15810 ft 355 kts 325°
2026-04-21 21:55 4.90029 -75.01384 15806 ft 355 kts 325°
2026-04-21 21:55 4.92076 -75.02776 15788 ft 356 kts 325°
2026-04-21 21:55 4.94127 -75.04172 15784 ft 356 kts 325°
2026-04-21 21:55 4.96172 -75.05563 15775 ft 356 kts 325°
2026-04-21 21:56 4.98223 -75.06957 15765 ft 356 kts 325°
2026-04-21 21:56 5.00271 -75.08350 15763 ft 355 kts 325°
2026-04-21 21:56 5.02317 -75.09743 15756 ft 355 kts 325°
2026-04-21 21:56 5.04366 -75.11139 15751 ft 355 kts 325°
2026-04-21 21:57 5.06412 -75.12534 15751 ft 355 kts 325°
2026-04-21 21:57 5.08428 -75.13908 15748 ft 355 kts 325°
2026-04-21 21:57 5.10487 -75.15313 15758 ft 354 kts 325°
2026-04-21 21:57 5.12534 -75.16708 15759 ft 355 kts 325°
2026-04-21 21:58 5.14577 -75.18100 15761 ft 355 kts 325°
2026-04-21 21:58 5.16492 -75.19606 15844 ft 354 kts 314°
2026-04-21 21:58 5.18120 -75.21455 15859 ft 354 kts 309°
2026-04-21 21:58 5.19719 -75.23341 15853 ft 354 kts 310°
2026-04-21 21:59 5.21327 -75.25212 15854 ft 355 kts 310°
2026-04-21 21:59 5.22955 -75.27081 15851 ft 355 kts 310°
2026-04-21 21:59 5.24589 -75.28939 15846 ft 355 kts 310°
2026-04-21 21:59 5.26224 -75.30790 15846 ft 355 kts 310°
2026-04-21 22:00 5.27869 -75.32648 15830 ft 355 kts 310°
2026-04-21 22:00 5.29507 -75.34497 15823 ft 355 kts 310°
2026-04-21 22:00 5.31149 -75.36352 15818 ft 355 kts 310°
2026-04-21 22:00 5.32801 -75.38185 15800 ft 355 kts 314°
2026-04-21 22:01 5.34855 -75.39545 15812 ft 357 kts 338°
2026-04-21 22:01 5.37255 -75.40054 15777 ft 359 kts 356°
2026-04-21 22:01 5.39752 -75.40167 15761 ft 359 kts 356°
2026-04-21 22:01 5.42246 -75.40283 15750 ft 357 kts 356°
2026-04-21 22:02 5.44694 -75.40403 15748 ft 345 kts 356°
2026-04-21 22:02 5.47063 -75.40524 15734 ft 336 kts 356°
2026-04-21 22:02 5.49391 -75.40648 15738 ft 334 kts 356°
2026-04-21 22:02 5.51703 -75.40774 15655 ft 331 kts 356°
2026-04-21 22:03 5.53997 -75.40901 15459 ft 328 kts 356°
2026-04-21 22:03 5.56259 -75.41026 15155 ft 328 kts 356°
2026-04-21 22:03 5.58535 -75.41153 14844 ft 326 kts 356°
2026-04-21 22:03 5.60797 -75.41278 14519 ft 324 kts 355°
2026-04-21 22:04 5.63052 -75.41404 14180 ft 324 kts 356°
2026-04-21 22:04 5.65275 -75.41529 13926 ft 320 kts 356°
2026-04-21 22:04 5.67487 -75.41654 13725 ft 314 kts 356°
2026-04-21 22:04 5.69640 -75.41774 13592 ft 305 kts 356°
2026-04-21 22:05 5.71728 -75.41889 13462 ft 297 kts 356°
2026-04-21 22:05 5.73770 -75.42002 13326 ft 290 kts 356°
2026-04-21 22:05 5.75756 -75.42112 13207 ft 282 kts 355°
2026-04-21 22:05 5.77671 -75.42217 13052 ft 274 kts 356°
2026-04-21 22:06 5.79558 -75.42247 12796 ft 270 kts 359°
2026-04-21 22:06 5.81403 -75.42234 12657 ft 261 kts 359°
2026-04-21 22:06 5.83195 -75.42224 12421 ft 253 kts 359°
2026-04-21 22:06 5.84930 -75.42219 12191 ft 245 kts 358°
2026-04-21 22:07 5.86574 -75.42265 12143 ft 227 kts 356°
2026-04-21 22:07 5.88131 -75.42305 11892 ft 220 kts 358°
2026-04-21 22:07 5.89646 -75.42319 11634 ft 214 kts 358°
2026-04-21 22:07 5.91112 -75.42323 11394 ft 208 kts 358°
2026-04-21 22:08 5.92537 -75.42323 11142 ft 206 kts 358°
2026-04-21 22:08 5.93959 -75.42323 10906 ft 200 kts 359°
2026-04-21 22:08 5.95315 -75.42323 10706 ft 187 kts 358°
2026-04-21 22:08 5.96562 -75.42324 10468 ft 173 kts 358°
2026-04-21 22:09 5.97744 -75.42322 10270 ft 171 kts 358°
2026-04-21 22:09 5.98914 -75.42325 10086 ft 170 kts 359°
2026-04-21 22:09 6.00098 -75.42323 9875 ft 170 kts 359°
2026-04-21 22:09 6.01283 -75.42323 9654 ft 170 kts 359°
2026-04-21 22:10 6.02469 -75.42324 9438 ft 169 kts 359°
2026-04-21 22:10 6.03642 -75.42324 9226 ft 168 kts 359°
2026-04-21 22:10 6.04815 -75.42324 9023 ft 168 kts 359°
2026-04-21 22:10 6.05965 -75.42324 8812 ft 167 kts 359°
2026-04-21 22:11 6.07125 -75.42324 8606 ft 166 kts 359°
2026-04-21 22:11 6.08285 -75.42324 8399 ft 166 kts 359°
2026-04-21 22:11 6.09442 -75.42324 8187 ft 165 kts 359°
2026-04-21 22:11 6.10587 -75.42324 7964 ft 164 kts 360°
2026-04-21 22:12 6.11703 -75.42308 7750 ft 163 kts
2026-04-21 22:12 6.12827 -75.42286 7518 ft 159 kts
2026-04-21 22:12 6.13924 -75.42286 7239 ft 157 kts 359°
2026-04-21 22:12 6.15011 -75.42307 7001 ft 155 kts 359°
2026-04-21 22:13 6.16006 -75.42311 6980 ft 125 kts 359°
2026-04-21 22:13 6.16727 -75.42315 7007 ft 81 kts 359°
2026-04-21 22:13 6.17146 -75.42317 7021 ft 46 kts 360°
2026-04-21 22:13 6.17440 -75.42319 7023 ft 30 kts
2026-04-21 22:14 6.17560 -75.42335 7023 ft 10 kts 314°
2026-04-21 22:14 6.17573 -75.42416 7023 ft 13 kts 271°
2026-04-21 22:14 6.17560 -75.42499 7019 ft 12 kts 225°
2026-04-21 22:14 6.17489 -75.42548 7020 ft 12 kts 213°
2026-04-21 22:15 6.17420 -75.42593 7016 ft 12 kts 212°
2026-04-21 22:15 6.17347 -75.42629 7019 ft 11 kts 208°
2026-04-21 22:15 6.17294 -75.42687 7015 ft 11 kts 230°
2026-04-21 22:15 6.17271 -75.42715 7016 ft 2 kts 229°
2026-04-21 22:16 6.17265 -75.42722 7015 ft 0 kts 229°